Weather Roundup
Issued by NWS

Home | Current Version | Previous Version | Text Only | Print | Product List | Glossary On
Versions: 1 2 3 4 5 6 7 8 9 10 11 12 13 14 15 16 17 18 19 20 21 22 23 24 25 26 27 28 29 30 31 32 33 34 35 36 37 38 39 40 41 42 43 44 45 46 47 48 49 50
000
NZUS93 KARX 041010
HRRWXR

CURRENT HOURLY OBSERVATIONS ACROSS
MUCH OF THE UPPER MISSISSIPPI VALLEY
NATIONAL WEATHER SERVICE LA CROSSE WI
500 AM CDT FRI SEP 04 2015


...SOUTHEAST MINNESOTA...


CITY           SKY/WX    TMP DP  RH WIND       PRES   REMARKS
ROCHESTER      FOG       72  72 100 SE9       29.96S VSB 1/2
ROCHESTER/MAYO CLOUDY    72  72 100 E12       29.95F
WINONA         CLEAR     70  64  83 SE5       29.97S
AUSTIN         CLEAR     72  70  94 SE3       29.94S
ALBERT LEA     CLEAR     73  72  94 S6        29.93S
DODGE CENTER   CLEAR     72  70  94 SE5       29.95S FOG
PRESTON        CLOUDY    71  69  94 E8        29.98S FOG
OWATONNA       CLEAR     73  70  88 SE8       29.93S
FARIBAULT      CLEAR     73  72  94 SE7       29.92S
$$

...ELSEWHERE IN MINNESOTA...


CITY           SKY/WX    TMP DP  RH WIND       PRES   REMARKS
MINNEAPOLIS    PTCLDY    71  68  90 SE10      29.92R
INTNL FALLS    PTCLDY    56  53  90 SE7       29.94S
DULUTH         MOCLDY    58  56  93 E8        29.99F
RED WING       CLEAR     72  66  83 SE10      29.93S
REDWOOD FALLS  PTCLDY    73  71  93 SE8       29.84S
MANKATO        PTCLDY    73  70  88 SE8       29.89S
WORTHINGTON    CLEAR     72  64  78 S9        29.87S
FAIRMONT       PTCLDY    72  55  56 S8        29.88F
$$

...SOUTHWEST WISCONSIN...


CITY           SKY/WX    TMP DP  RH WIND       PRES   REMARKS
LA CROSSE      PTCLDY    69  65  86 SE3       29.97S
PRAIRIE DU CHI MOCLDY    70  65  86 SE3       29.96S
BOSCOBEL       CLEAR     68  66  93 CALM      29.98S
LONE ROCK      CLOUDY    68  66  93 CALM      29.99S
PLATTEVILLE    PTCLDY    69  68  97 E8        29.98S
FORT MC COY    CLOUDY    69  64  84 CALM      30.00S
CAMP DOUGLAS   CLOUDY    69  69 100 E2        30.00S
VIROQUA          N/A     66  66 100 E7        30.00S
WIS DELLS      CLOUDY    69  65  88 CALM      30.00S
$$

...ELSEWHERE IN WISCONSIN...


CITY           SKY/WX    TMP DP  RH WIND       PRES   REMARKS
MILWAUKEE      PTCLDY    66  63  90 CALM      29.98S
MADISON        CLOUDY    70  65  84 CALM      29.99S
GREEN BAY      CLOUDY    67  65  93 N6        30.00S
EAU CLAIRE     CLOUDY    69  64  84 E7        29.98S
BLACK RVR FLS  CLOUDY    71  65  81 CALM      29.99S
MEDFORD        PTCLDY    60  60 100 SE3       30.04R
WAUSAU         CLEAR     60  59  96 CALM      30.01F
WIS RAPIDS     CLOUDY    63  61  93 CALM      30.03R
MARSHFIELD     CLOUDY    65  61  87 E6        30.02S FOG
RICE LAKE      CLOUDY    67  64  88 E6        30.01S
$$

...NORTHEAST IOWA...


CITY           SKY/WX    TMP DP  RH WIND       PRES   REMARKS
DECORAH        CLOUDY    70  70 100 E8        29.96F
MASON CITY     CLEAR     68  68 100 S3        29.94F FOG
CHARLES CITY   CLEAR     70  70 100 SE5       29.95S
OELWEIN          N/A    N/A N/A N/A MISG        N/A
$$

...ELSEWHERE IN IOWA...


CITY           SKY/WX    TMP DP  RH WIND       PRES   REMARKS
DES MOINES     PTCLDY    72  66  81 S7        29.91F
IOWA CITY      MOCLDY    72  70  93 CALM      29.96R
FORT DODGE     CLEAR     73  66  78 SE7       29.92S
$$

...NORTHERN ILLINOIS...


CITY           SKY/WX    TMP DP  RH WIND       PRES   REMARKS
CHICAGO-OHARE  CLEAR     69  66  90 N3        29.97S
CHICAGO-MIDWAY PTCLDY    73  66  78 CALM      29.97R
MOLINE         CLEAR     70  67  90 CALM      29.95S
ROCKFORD       PTCLDY    68  65  90 E3        29.99F
PEORIA         CLEAR     74  67  78 CALM      29.97R
$$

NOTE: "FAIR" INDICATES FEW OR NO CLOUDS BELOW 12,000 FEET WITH NO
SIGNIFICANT WEATHER AND/OR OBSTRUCTIONS TO VISIBILITY. WIND
SPEEDS ARE IN MILES-PER-HOUR.



USA.gov is the U.S. government's official web portal to all federal, state and local government web resources and services.